Regional Weather Roundup
Issued by NWS

Home | Current Version | Previous Version | Text Only | Print | Product List | Glossary Off
Versions: 1 2 3 4 5 6 7 8 9 10 11 12 13 14 15 16 17 18 19 20 21 22 23 24 25 26 27 28 29 30 31 32 33 34 35 36 37 38 39 40 41 42 43 44 45 46 47 48 49 50

000
ASUS45 KTFX 210819
RWRMT
MONTANA HOURLY WEATHER ROUNDUP
NATIONAL WEATHER SERVICE GREAT FALLS MT
219 AM MDT TUE OCT 21 2014

NOTE: "FAIR" INDICATES FEW OR NO CLOUDS BELOW 12000 FEET WITH NO
SIGNIFICANT WEATHER AND/OR OBSTRUCTIONS TO VISIBILITY.

* THESE STATIONS ARE NOT UNDER NWS QUALITY CONTROL. THEY DO NOT
   REPORT WEATHER SUCH AS PRECIPITATION OR FOG.

MTZ001>007-043-210900-
WEST OF THE DIVIDE
CITY           SKY/WX    TMP DP  RH WIND       PRES   REMARKS
KALISPELL      MOCLDY    39  37  93 CALM      29.73R
MISSOULA       CLOUDY    50  43  77 VRB6      29.77R
BUTTE          PTCLDY    48  34  59 SE7       29.82S
MULLAN PASS    FOG       41  41 100 VRB7      29.85F VSB M1/4
* ESSEX        N/A       43  35  73 N1         N/A
* LINCOLN      N/A       38  31  76 NE1        N/A
* POLSON       N/A       52  38  59 SE1        N/A
* RONAN APT    MOCLDY    46  41  83 N/A        N/A
* SEELEY LAKE  N/A       36  32  85 NE1        N/A
* THOMP F APT  CLOUDY    50  31  48 NE3        N/A
$$

MTZ008-052>055-210900-
SOUTHWEST MONTANA
CITY           SKY/WX    TMP DP  RH WIND       PRES   REMARKS
BOZEMAN        CLEAR     43  34  71 SE5       29.80F
DILLON         PTCLDY    48  36  63 SW10      29.79F
W YELLOWSTONE  CLEAR     27  27 100 CALM      29.96F
* THREE FORKS  CLEAR     61  46  58 N/A        N/A
* BOULDER HILL N/A       53  28  38 SW4        N/A
* MONIDA PASS  N/A       43  32  65 SE9        N/A
* RAYNOLDS PAS N/A       47  29  50 SE13       N/A
* WHITEHALL    N/A       51  32  48 N6G12      N/A
* WISE RIVER   N/A       41  27  58 W4G12      N/A
$$

MTZ009>010-012-014-046-048-049-054-210900-
EAST SLOPES AND CENTRAL MONTANA
CITY           SKY/WX    TMP DP  RH WIND       PRES   REMARKS
CUT BANK       PTCLDY    45  30  56 N5        29.68S
GREAT FALLS    CLEAR     63  34  34 S17       29.68S
HELENA         CLEAR     54  36  51 VRB3      29.73S
MALMSTROM AFB  CLEAR     59  34  39 S8        29.69S
* CONRAD       PTCLDY    36  30  79 N/A        N/A
* DEARBORN     N/A       44  36  74 S3         N/A
* EAST GLACIER N/A       51  30  45 NW2G7      N/A
* MONARCH      N/A       57  30  36 SE11G17    N/A
* PENDROY      N/A       59  34  39 VRB8       N/A
* ROGERS PASS  N/A       50  33  52 NW4        N/A
* SAINT MARY   N/A       42  30  63 SE4        N/A
* SWEET GRASS  N/A       63  27  26 SW4        N/A
* WHITE SULPH  N/A       46  31  56 E6         N/A
$$

MTZ011-013-016-021-035-040-045-047-050-051-210900-
NORTH CENTRAL MONTANA
CITY           SKY/WX    TMP DP  RH WIND       PRES   REMARKS
HAVRE          CLEAR     43  37  79 E6        29.64F
LEWISTOWN      CLEAR     52  32  47 E6        29.76F
* CHINOOK      CLEAR     48  39  71 E8        29.65F
* FORT BENTON  CLEAR     46  34  63 CALM      29.66F
* CHESTER      N/A       42  27  55 N3         N/A
* DENTON       N/A       56  37  49 S8G14      N/A
* GEYSER       N/A       60  35  39 S12G19     N/A
* JUDITH GAP   N/A       47  35  63 S3         N/A
* LOMA         N/A       50  35  57 NE4        N/A
$$

MTZ017>020-022>027-061-062-210900-
NORTHEAST MONTANA
CITY           SKY/WX    TMP DP  RH WIND       PRES   REMARKS
GLASGOW        CLEAR     48  37  66 E15       29.71F
GLENDIVE       CLEAR     46  39  77 W3        29.79S
JORDAN         CLEAR     37  32  82 CALM      29.74S
SIDNEY         CLEAR     41  37  86 CALM      29.79S
WOLF POINT     CLEAR     43  37  79 E5        29.74F
* BEAVER HILL  N/A       52  42  69 SE12       N/A
* CIRCLE       N/A       57  42  57 N/A        N/A
* LINDSAY DVD  N/A       52  39  61 E2         N/A
* NAVAJO       N/A       48  38  68 S7         N/A
$$

MTZ028>042-056>058-210900-
SOUTHCENTRAL AND SOUTHEAST MONTANA
CITY           SKY/WX    TMP DP  RH WIND       PRES   REMARKS
BAKER          CLEAR     46  39  77 E6        29.80F
BILLINGS       CLEAR     57  28  33 SW10      29.78F
LIVINGSTON     CLEAR     63  36  37 W13G25    29.80F
MILES CITY     CLEAR     46  39  77 CALM      29.76S
* LAUREL APT   CLEAR     52  27  38 N/A        N/A
* ROUNDUP APT  CLEAR     46  28  50 W5         N/A
* ALZADA       N/A       49  39  69 E3         N/A
* HYSHAM       N/A       64  27  25 W6         N/A
* LAME DEER    N/A       65  37  36 SE8        N/A
* REED POINT   N/A       40  35  82 NE3        N/A
* ROSCOE HILL  N/A       59  24  26 S5         N/A
$$

REGIONAL REPORTS...DAKOTAS
CITY           SKY/WX    TMP DP  RH WIND       PRES   REMARKS
WILLISTON      CLEAR     39  36  89 CALM      29.79F
DICKINSON      CLEAR     46  37  71 SE10      29.81F
BEACH          N/A       43  41  93 SE5       29.80F
CROSBY         CLEAR     48  43  83 S12       29.79F
TIOGA          CLEAR     46  41  83 SE7       29.85F
BISMARCK       CLEAR     55  34  45 E12       29.89F
GRAND FORKS    CLEAR     39  36  89 S9        30.05S WCI  33
FARGO          CLEAR     45  37  74 SE12      30.06R
BUFFALO SD     CLEAR     50  41  71 E6        29.76F
RAPID CITY     PTCLDY    52  41  66 SE13      29.86F
$$

REGIONAL REPORTS...WYOMING/IDAHO/WASHINGTON
CITY           SKY/WX    TMP DP  RH WIND       PRES   REMARKS
SHERIDAN       CLEAR     45  30  56 VRB5      29.82S
CODY           CLEAR     54  34  47 SW8       29.88F
YELLOWSTONE LA CLEAR     30  27  89 CALM      30.06F
SALMON         PTCLDY    52  36  55 S5        29.74S
MULLAN PASS    FOG       41  41 100 VRB7      29.85S VSB M1/4
SAND POINT     LGT RAIN  54  45  72 SW6       29.82R
SPOKANE        CLOUDY    50  45  83 S8        29.82F
$$

REGIONAL REPORTS...ALBERTA
CITY           SKY/WX    TMP DP  RH WIND       PRES   REMARKS
CALGARY        FAIR      50  32  50 SW6       29.59F
LETHBRIDGE     CLEAR     41  34  76 SE8       29.64S
MEDICINE HAT   CLEAR     43  34  71 S7        29.64R
EDMONTON       MOCLDY    46  37  71 W9        29.55R
WATERTON GATE  N/A       36  30  79 NE3        N/A
CARDSTON       N/A       46  34  63 S3         N/A
MILK RIVER     N/A       41  30  65 W3         N/A
$$

REGIONAL REPORTS...SASKATCHEWAN
CITY           SKY/WX    TMP DP  RH WIND       PRES   REMARKS
SWIFT CURRENT  CLEAR     50  41  71 S12G17    29.66F
REGINA         N/A       45  41  86 SE15G22   29.72F
VAL MARIE      N/A       36  36 100 E8         N/A   WCI  30
ASSINIBOIA     N/A       45  37  74 SE6        N/A
CORONACH       N/A       43  39  86 E6         N/A

$$



USA.gov is the U.S. government's official web portal to all federal, state and local government web resources and services.